Tracking 27107 objects as of 21-Mar-2023
HD Live streaming from Space Station
objects crossing your sky now

STARLINK-4631

Track STARLINK-4631 now!
10-day predictions
STARLINK-4631 is classified as:


NORAD ID: 53786
Int'l Code: 2022-111P
Perigee: 546.0 km
Apogee: 547.7 km
Inclination: 53.2 °
Period: 95.4 minutes
Semi major axis: 6917 km
RCS: Unknown
Launch date: September 11, 2022
Source: United States (US)
Launch site: AIR FORCE EASTERN TEST RANGE (AFETR)
Your satellite tracking list
Your tracking list is empty




NASA's NSSDC Master Catalog

Two Line Element Set (TLE):
1 53786U 22111P   23080.48662089 -.00000047  00000-0  15121-4 0  9998
2 53786  53.2192  91.0581 0001254 120.3686 239.7430 15.08845008 30162
Source of the keplerian elements: AFSPC